User: anonymous   Login
Location: Bittelbronn
(48.4454°N, 8.5870°E)
Time: 09:10:35
(UTC+00:00)
Language:

Cosmos 1674 Rocket - Orbit

View from above orbital plane
View from above orbital plane
View from above satellite
View from above satellite

Ground track
Ground track

The orbit data is extracted from the following two-line orbital elements,

1 15945U 85069B   24197.20309663  .00000773  00000-0  87008-4 0  9998
2 15945  82.5255 231.0332 0019914  31.4812 328.7591 14.85263968104462
Epoch (UTC): 15 July 2024 04:52:27
Eccentricity: 0.0019914
inclination: 82.5255°
perigee height: 599 km
apogee height: 626 km
right ascension of ascending node: 231.0332°
argument of perigee: 31.4812°
revolutions per day: 14.85263968
mean anomaly at epoch: 328.7591°
orbit number at epoch: 10446

The dashed part of the orbit path shows where the satellite is in the earth's shadow,  

DLR